ORBCOMM-X 1 21576U 91050C 25350.97720538 .00000299 00000+0 10126-3 0 9994 2 21576 98.3225 53.6567 0003591 13.5378 346.5908 14.43439045808489 ORBCOMM FM01 1 23545U 95017A 25350.37083312 .00005983 00000+0 58053-3 0 9991 2 23545 69.9626 338.9391 0003933 335.8363 24.2608 14.93139208639677 ORBCOMM FM02 1 23546U 95017B 25350.44180726 .00007568 00000+0 70318-3 0 9996 2 23546 69.9642 357.3676 0005125 351.2622 8.8445 14.94722368639350 ORBCOMM FM08 1 25112U 97084A 25350.97152701 .00001069 00000+0 33322-3 0 9997 2 25112 45.0113 209.9473 0006646 92.6557 267.5056 14.46607714467836 ORBCOMM FM10 1 25113U 97084B 25350.98120954 .00001020 00000+0 32164-3 0 9994 2 25113 45.0137 212.6200 0005293 58.7382 301.3987 14.46352760642976 ORBCOMM FM11 1 25114U 97084C 25350.32717866 .00001064 00000+0 33537-3 0 9990 2 25114 45.0117 216.7330 0006078 56.4279 303.7152 14.46095178467833 ORBCOMM FM12 1 25115U 97084D 25350.97790036 .00001027 00000+0 32522-3 0 9994 2 25115 45.0119 213.3388 0005162 57.3949 302.7400 14.46119832467726 ORBCOMM FM09 1 25116U 97084E 25350.33660527 .00001056 00000+0 33422-3 0 9998 2 25116 45.0131 217.5503 0006432 43.0704 317.0650 14.45956037467831 ORBCOMM FM05 1 25117U 97084F 25350.99220227 .00001171 00000+0 36052-3 0 9990 2 25117 45.0133 209.8787 0002852 59.2334 300.8798 14.46718847467077 ORBCOMM FM06 1 25118U 97084G 25350.02927970 .00001101 00000+0 34015-3 0 9994 2 25118 45.0116 214.0277 0001754 51.2700 107.0604 14.46880277467856 ORBCOMM FM07 1 25119U 97084H 25350.97791133 .00001204 00000+0 36823-3 0 9992 2 25119 45.0121 210.2155 0003662 55.8272 304.2927 14.46893396467989 ORBCOMM FM03 1 25158U 98007B 25350.93914462 .00001019 00000+0 39869-3 0 9996 2 25158 107.9645 151.1308 0046674 287.6206 71.9840 14.35035683450255 ORBCOMM FM04 1 25159U 98007C 25350.96184107 .00001140 00000+0 43933-3 0 9997 2 25159 107.9636 154.5231 0042516 284.9136 74.7298 14.35282684450445 ORBCOMM FM17 1 25413U 98046A 25350.62490321 .00000867 00000+0 34714-3 0 9996 2 25413 44.9933 116.3250 0001726 75.8021 284.3018 14.35545080429383 ORBCOMM FM18 1 25414U 98046B 25350.47622508 .00001152 00000+0 41412-3 0 9995 2 25414 44.9940 29.4613 0003284 150.6672 209.4361 14.39164256430505 ORBCOMM FM19 1 25415U 98046C 25350.82663108 .00001132 00000+0 40920-3 0 9997 2 25415 44.9951 30.0754 0002129 161.0027 9.1577 14.38984635430503 ORBCOMM FM20 1 25416U 98046D 25350.14522174 .00000814 00000+0 31520-3 0 9992 2 25416 44.9950 39.2910 0001977 228.6383 131.4295 14.37671472430443 ORBCOMM FM16 1 25417U 98046E 25350.81892682 .00001062 00000+0 38257-3 0 9991 2 25417 44.9949 25.1698 0003790 172.4836 187.6070 14.39541879430569 ORBCOMM FM15 1 25418U 98046F 25350.49417317 .00001081 00000+0 39150-3 0 9998 2 25418 44.9978 32.4151 0003625 172.7784 187.3118 14.39170206430505 ORBCOMM FM14 1 25419U 98046G 25350.81024395 .00001082 00000+0 38856-3 0 9998 2 25419 44.9969 28.5937 0002478 185.8393 174.2428 14.39590178430525 ORBCOMM FM13 1 25420U 98046H 25350.53403088 .00000897 00000+0 33921-3 0 9990 2 25420 44.9983 39.7337 0003724 139.4291 220.6835 14.38206142429483 ORBCOMM FM21 1 25475U 98053A 25350.86369143 .00000861 00000+0 32985-3 0 9997 2 25475 45.0071 124.1305 0001280 119.9434 240.1541 14.37803226423530 ORBCOMM FM22 1 25476U 98053B 25350.83058466 .00000950 00000+0 35091-3 0 9998 2 25476 45.0067 117.5859 0002476 89.5213 270.5919 14.38975597423573 ORBCOMM FM23 1 25477U 98053C 25350.69920709 .00000884 00000+0 33587-3 0 9995 2 25477 45.0072 126.7429 0001911 88.5306 271.5761 14.38040634423661 ORBCOMM FM24 1 25478U 98053D 25350.63189694 .00001043 00000+0 38332-3 0 9991 2 25478 45.0068 123.7092 0001832 103.0591 257.0462 14.38663764423719 ORBCOMM FM25 1 25479U 98053E 25350.39869633 .00001106 00000+0 40372-3 0 9990 2 25479 45.0062 123.1146 0004195 96.5009 263.6317 14.38631075423973 ORBCOMM FM26 1 25480U 98053F 25350.67309772 .00000929 00000+0 35381-3 0 9992 2 25480 45.0058 119.6358 0006280 109.5841 250.5685 14.37604154423904 ORBCOMM FM27 1 25481U 98053G 25350.66000390 .00001129 00000+0 41081-3 0 9993 2 25481 45.0044 122.0071 0001324 157.0474 203.0434 14.38665977423944 ORBCOMM FM28 1 25482U 98053H 25350.46883228 .00000891 00000+0 33330-3 0 9994 2 25482 45.0060 60.1890 0004538 160.8730 199.2290 14.38795461424603 ORBCOMM FM30 1 25980U 99065A 25350.29474246 .00000913 00000+0 34713-3 0 9999 2 25980 45.0324 307.4617 0006198 220.1434 139.8958 14.37772211360650 ORBCOMM FM31 1 25981U 99065B 25350.55449520 .00000889 00000+0 33971-3 0 9993 2 25981 45.0236 299.6842 0004569 254.2383 105.7962 14.37699706360245 ORBCOMM FM32 1 25982U 99065C 25350.65186409 .00000875 00000+0 34133-3 0 9995 2 25982 45.0169 317.0208 0006890 242.0198 117.9953 14.36757555360836 ORBCOMM FM33 1 25983U 99065D 25350.31870259 .00000893 00000+0 32228-3 0 9995 2 25983 45.0268 212.7338 0007804 263.2268 96.7694 14.40537391362322 ORBCOMM FM36 1 25984U 99065E 25350.93471438 .00001063 00000+0 38942-3 0 9999 2 25984 45.0399 304.5011 0001022 162.2585 197.8300 14.38722458360739 ORBCOMM FM35 1 25985U 99065F 25350.28441361 .00000987 00000+0 37275-3 0 9992 2 25985 45.0406 314.1018 0004695 253.6543 106.3789 14.37627330360986 ORBCOMM FM34 1 25986U 99065G 25350.59861287 .00000856 00000+0 32970-3 0 9992 2 25986 45.0400 313.0833 0003191 211.9124 148.1532 14.37578171361143 ORBCOMM FM38 1 33060U 08031A 25350.75736510 .00001525 00000+0 21572-3 0 9995 2 33060 48.4373 164.6296 0004414 115.1268 245.0107 14.82279505941820 ORBCOMM FM41 1 33061U 08031B 25350.61815781 .00001277 00000+0 18694-3 0 9994 2 33061 48.4409 173.7205 0003539 97.4255 299.8376 14.81833870941282 ORBCOMM FM29 1 33062U 08031C 25350.94734072 .00001257 00000+0 18388-3 0 9992 2 33062 48.4364 179.7142 0005265 96.6522 60.9377 14.81981835941244 ORBCOMM FM39 1 33063U 08031D 25350.59343983 .00001389 00000+0 20758-3 0 9991 2 33063 48.4392 207.7425 0006198 61.1233 299.0303 14.80420145940811 ORBCOMM FM37 1 33064U 08031E 25350.96975789 .00001148 00000+0 17560-3 0 9998 2 33064 48.4370 194.1880 0004746 84.9078 57.3749 14.80619219941125 ORBCOMM FM40 1 33065U 08031F 25350.71727326 .00001538 00000+0 21324-3 0 9990 2 33065 48.4390 176.2274 0005792 101.8169 356.6436 14.83125081941241 VESSELSAT 1 1 37840U 11058C 25350.57615039 .00000351 00000+0 46848-4 0 9990 2 37840 19.9623 70.2092 0013780 33.4046 326.7226 14.11399512732100 ORBCOMM FM109 1 40086U 14040A 25350.97450369 .00000484 00000+0 13933-3 0 9992 2 40086 47.0024 232.8054 0001164 98.8693 261.2325 14.58551326607741 ORBCOMM FM107 1 40087U 14040B 25350.37708847 .00000569 00000+0 15730-3 0 9995 2 40087 47.0041 236.5160 0001012 8.0553 352.0349 14.58626534607738 ORBCOMM FM106 1 40088U 14040C 25350.55879443 .00000982 00000+0 19293-3 0 9994 2 40088 47.0613 43.0348 0016838 197.9838 162.0459 14.70039449610304 ORBCOMM FM111 1 40089U 14040D 25350.91823500 .00002054 00000+0 24511-3 0 9999 2 40089 46.9997 226.3118 0028689 347.3447 12.6728 14.87746727617424 ORBCOMM FM104 1 40090U 14040E 25350.49812272 .00000525 00000+0 15300-3 0 9995 2 40090 47.0054 271.7600 0016848 317.1698 42.7874 14.57013821607209 ORBCOMM FM103 1 40091U 14040F 25350.97613372 .00000470 00000+0 13642-3 0 9995 2 40091 47.0045 234.3465 0001562 21.8739 338.2213 14.58541266590780 ORBCOMM FM114 1 41179U 15081A 25350.44484737 .00000217 00000+0 82636-4 0 9991 2 41179 47.0034 145.8114 0001764 89.6093 270.4994 14.58560204531075 ORBCOMM FM119 1 41180U 15081B 25350.64654148 .00000562 00000+0 15611-3 0 9991 2 41180 47.0013 54.2168 0001323 212.3140 147.7664 14.58508475532359 ORBCOMM FM105 1 41181U 15081C 25350.93260807 .00000226 00000+0 10810-3 0 9992 2 41181 47.0017 75.6687 0000914 47.0850 313.0107 14.45408390527189 ORBCOMM FM110 1 41182U 15081D 25350.77725094 .00000766 00000+0 19941-3 0 9992 2 41182 47.0007 143.7412 0002683 300.3516 59.7104 14.58588371530997 ORBCOMM FM118 1 41183U 15081E 25350.12673891 .00000628 00000+0 17003-3 0 9993 2 41183 47.0026 147.1138 0003225 263.4007 96.6512 14.58579855531002 ORBCOMM FM112 1 41184U 15081F 25350.19793150 .00000685 00000+0 18204-3 0 9999 2 41184 46.9999 55.3123 0000622 103.8125 256.2830 14.58584017532239 ORBCOMM FM113 1 41185U 15081G 25350.44919640 .00000796 00000+0 20573-3 0 9997 2 41185 47.0015 54.4808 0000561 146.9329 213.1592 14.58580683532251 ORBCOMM FM115 1 41186U 15081H 25350.43171350 .00000657 00000+0 16123-3 0 9997 2 41186 46.9981 252.5518 0000856 218.2534 141.8293 14.62928420534458 ORBCOMM FM108 1 41187U 15081J 25350.61729733 .00000868 00000+0 22124-3 0 9994 2 41187 47.0063 325.1956 0001818 55.1884 304.9173 14.58563660533421 ORBCOMM FM117 1 41188U 15081K 25350.92556841 .00000826 00000+0 21206-3 0 9991 2 41188 47.0024 322.4355 0002069 69.6117 290.4991 14.58589996533517 ORBCOMM FM116 1 41189U 15081L 25350.49490104 .00000875 00000+0 22252-3 0 9999 2 41189 47.0030 54.2415 0002600 277.4533 82.6057 14.58582119532269